Flag for Germany Weather past 2 weeks in Worms, Rhineland-Palatinate, Germany

Now
68 °F

Sunny.


Feels Like: 68 °F
Forecast: 46 / 62 °F
Wind: 3 mph from North

Location: Baden Wurttemberg - Neuostheim

Current Time: Apr 26, 2015 at 9:52:08 PM

Latest Report: Apr 26, 2015 at 7:20 PM


Visibility: 10 mi

Pressure: 29.65 "Hg

Humidity: 49%

Dew point: 48 °F

Location of WormsLocation

Historic Weather in Worms — Graph

°F

Worms temperature yesterday

Maximum temperature yesterday: 64 °F (at 1:50 PM)
Minimum temperature yesterday: 54 °F (at 7:20 AM)
Average temperature yesterday: 59 °F

Past Weeks' High & Low Weather Summary

 TemperatureHumidityPressure
High79 °F (Apr 15, 4:20 PM)94% (Apr 26, 7:50 AM)30.45 "Hg (Apr 26, 7:50 AM)
Low37 °F (Apr 23, 5:50 AM)19% (Apr 15, 8:20 PM)29.65 "Hg (Apr 26, 5:50 PM)
Average60 °F47%30.13 "Hg
* Reported Apr 11 7:20 PM — Apr 26 7:20 PM, Worms, Weather by CustomWeather, © 2015

Note: Actual official high and low records may vary slightly from our data, if they occured in-between our weather recording intervals... More about our weather records

Advertising

Worms weather history for previous 24 hours

 ConditionsComfort  
Time TempWeatherWind HumidityBarometerVisibility
7:20 PM
Sun, Apr 26
68 °FSunny.3 mph49%29.65 "Hg10 mi
6:50 PM70 °FPassing clouds.5 mph46%29.65 "HgN/A
6:20 PM70 °FPassing clouds.6 mph46%29.65 "HgN/A
5:50 PM70 °FPassing clouds.6 mph43%29.65 "HgN/A
5:20 PM70 °FPassing clouds.7 mph46%29.68 "HgN/A
4:50 PM72 °FPassing clouds.6 mph47%29.68 "HgN/A
4:20 PM70 °FPassing clouds.7 mph50%29.71 "HgN/A
3:50 PM70 °FPassing clouds.7 mph46%29.71 "HgN/A
3:20 PM70 °FScattered showers. Broken clouds.7 mph50%29.74 "HgN/A
2:50 PM68 °FScattered showers. Scattered clouds.6 mph56%29.74 "HgN/A
2:20 PM63 °FScattered showers. Scattered clouds.8 mph64%29.74 "HgN/A
1:50 PM68 °FScattered showers. Broken clouds.8 mph49%29.74 "HgN/A
1:20 PM68 °FScattered showers. Scattered clouds.8 mph53%29.77 "HgN/A
12:50 PM68 °FScattered clouds.6 mph56%29.77 "HgN/A
12:20 PM64 °FPassing clouds.7 mph60%29.80 "HgN/A
11:50 AM64 °FScattered clouds.8 mph60%29.80 "HgN/A
11:20 AM64 °FScattered clouds.7 mph60%29.80 "HgN/A
10:50 AM63 °FPartly sunny.6 mph68%29.80 "HgN/A
10:20 AM61 °FPartly sunny.6 mph72%29.80 "HgN/A
9:50 AM61 °FPartly sunny.5 mph77%29.80 "HgN/A
9:20 AM59 °FPartly sunny.5 mph88%29.83 "HgN/A
8:50 AM57 °FOvercast.5 mph88%29.83 "HgN/A
8:20 AM57 °FPartly sunny.5 mph88%29.83 "HgN/A
7:50 AM55 °FBroken clouds.5 mph94%29.83 "HgN/A
Weather by CustomWeather, © 2015

See weather overviewHow to use our weather pages